Retour au catalogue

NIMBUS 2 DEB

ActifLEO
NORAD 28617·DEBRIS·🇺🇸 United States

Lancé May 15, 1966 depuis Vandenberg Space Force Base

Loading…

Prochains Passages (prochaines 24 heures)

TLE

FraisSource: Space-Track

Époque: Sep 13, 2026, 23:28 UTC

1 28617U 66040AG  26256.97823988  .00002572  00000-0  24267-2 0  9994
2 28617 100.4800 146.0912 0042389 183.5149 190.2808 13.81979803207319

Suivez NIMBUS 2 DEB en temps réel avec AllMySat

Download on the App Store